EW4077 Weather Reports


Display with metric or nautical units.
time (UTC)temp
F
wind
direction
speed
MPH
gust
MPH
rain 1hr
in
rain 24hr
in
rain mn
in
humidity
%
barometer
mb
20260502163034 61 221 1.0 2.0 0.00 0.00 0.00 86 1015.0
20260502161522 60 156 0.0 2.0 0.00 0.00 0.00 88 1015.1
20260502151613 60 122 2.0 5.0 0.00 0.00 0.00 89 1014.9
20260502123057 59 167 3.0 5.0 0.00 0.00 0.00 90 1014.0
20260502121556 59 150 2.0 4.0 0.00 0.00 0.00 90 1013.8
20260502120110 59 209 2.0 5.0 0.00 0.00 0.00 90 1013.7
20260502114601 59 188 2.0 5.0 0.00 0.00 0.00 90 1013.6
20260502113055 59 250 4.0 5.0 0.00 0.00 0.00 90 1013.5
20260502111559 59 217 2.0 4.0 0.00 0.00 0.00 90 1013.4
20260502110052 59 253 2.0 4.0 0.00 0.00 0.00 90 1013.5
20260502104554 59 128 1.0 3.0 0.00 0.00 0.00 90 1013.4
20260502103050 59 228 2.0 4.0 0.00 0.00 0.00 90 1013.2
20260502101553 59 175 0.0 2.0 0.00 0.00 0.00 90 1013.2
20260502100109 59 230 0.0 2.0 0.00 0.00 0.00 90 1013.1
20260502070032 59 253 1.0 5.0 0.00 0.00 0.00 90 1014.1
20260502064529 59 253 2.0 6.0 0.00 0.00 0.00 89 1014.1
20260502063029 59 248 3.0 7.0 0.00 0.00 0.00 89 1014.1
20260502061528 59 245 4.0 6.0 0.00 0.00 0.00 89 1014.0
20260502060027 60 201 4.0 7.0 0.00 0.00 0.00 88 1013.8
20260502054527 60 249 4.0 6.0 0.00 0.00 0.00 88 1013.7
20260502053026 60 258 5.0 9.0 0.00 0.00 0.00 88 1013.9
20260502051545 60 245 5.0 8.0 0.00 0.00 0.00 87 1013.9
20260502050024 60 270 5.0 10.0 0.00 0.00 0.00 87 1013.7
20260502044523 60 188 6.0 11.0 0.00 0.00 0.00 87 1013.7
20260502043022 60 244 7.0 12.0 0.00 0.00 0.00 87 1013.5
20260502041524 60 254 7.0 12.0 0.00 0.00 0.00 86 1013.3
20260502040022 61 234 7.0 13.0 0.00 0.00 0.00 87 1013.2
20260502034535 61 244 8.0 12.0 0.00 0.00 0.00 87 1012.9
20260502033025 61 255 8.0 13.0 0.00 0.00 0.00 87 1012.7
20260502031519 61 242 9.0 14.0 0.00 0.00 0.00 86 1012.5
20260502030016 61 240 9.0 14.0 0.00 0.00 0.00 86 1012.3
20260502024516 61 233 11.0 14.0 0.00 0.00 0.00 86 1012.2
20260502023016 61 251 9.0 15.0 0.00 0.00 0.00 86 1012.2
20260502021514 62 252 10.0 19.0 0.00 0.00 0.00 85 1012.1
20260502020012 62 255 9.0 17.0 0.00 0.00 0.00 84 1011.7
20260502014514 63 245 12.0 20.0 0.00 0.00 0.00 82 1011.7
20260502013008 63 223 12.0 20.0 0.00 0.00 0.00 81 1011.6
20260502011508 64 252 12.0 19.0 0.00 0.00 0.00 80 1011.5
20260502010004 64 244 9.0 18.0 0.00 0.00 0.00 80 1011.4
20260502004505 64 221 12.0 20.0 0.00 0.00 0.00 80 1011.3
20260502003005 64 248 10.0 20.0 0.00 0.00 0.00 80 1011.4
20260502001601 65 251 13.0 21.0 0.00 0.00 0.00 78 1011.4
20260502000101 65 229 11.0 18.0 0.00 0.00 0.00 78 1011.4
20260501234559 65 264 12.0 18.0 0.00 0.00 0.00 78 1011.4
20260501233058 65 262 13.0 21.0 0.00 0.00 0.00 77 1011.7
20260501231559 64 280 13.0 19.0 0.00 0.00 0.00 77 1011.7
20260501230048 64 250 13.0 18.0 0.00 0.00 0.00 78 1011.8
20260501224545 64 229 10.0 17.0 0.00 0.00 0.00 77 1012.0
20260501223042 65 271 7.0 14.0 0.00 0.00 0.00 77 1012.3
20260501221538 65 223 8.0 14.0 0.00 0.00 0.00 77 1012.6
20260501220034 66 213 7.0 14.0 0.00 0.00 0.00 73 1012.8
20260501214545 66 244 4.0 7.0 0.00 0.00 0.00 73 1013.0
20260501213031 67 236 3.0 8.0 0.00 0.00 0.00 72 1013.3
20260501211530 66 208 4.0 10.0 0.00 0.00 0.00 72 1013.4
20260501210029 66 157 5.0 10.0 0.00 0.00 0.00 71 1013.5
20260501204628 67 160 5.0 10.0 0.00 0.00 0.00 72 1013.7
20260501203028 66 156 5.0 9.0 0.00 0.00 0.00 72 1013.7
20260501201527 66 142 5.0 9.0 0.00 0.00 0.00 71 1013.9
20260501200028 66 204 4.0 8.0 0.00 0.00 0.00 72 1014.1
20260501194527 67 175 4.0 7.0 0.00 0.00 0.00 71 1014.1
20260501193031 68 145 1.0 4.0 0.00 0.00 0.00 69 1014.1
20260501191526 67 95 1.0 3.0 0.00 0.00 0.00 72 1014.2
20260501190020 66 166 1.0 4.0 0.00 0.00 0.00 73 1014.5
20260501184625 66 167 2.0 4.0 0.00 0.00 0.00 73 1014.8
20260501183019 65 215 1.0 3.0 0.00 0.00 0.00 74 1015.0
20260501181514 65 164 1.0 3.0 0.00 0.00 0.00 76 1015.1
20260501180019 64 210 3.0 4.0 0.00 0.00 0.00 76 1015.1
20260501174512 64 221 1.0 2.0 0.00 0.00 0.00 77 1015.2
20260501173007 63 158 1.0 3.0 0.00 0.00 0.00 79 1015.2